www.pogodaiklimat.ru

Погода и климат >> Архив погоды >> Пакистан >> Jacobabad


ПОГОДА в Jacobabad

  • Прогноз погоды в Jacobabad
  • Монитор погоды в Jacobabad
  • Климат города

АРХИВ ПОГОДЫ в Jacobabad

Время (UTC), дата Ветер
(напр.,м/с)
 
Видим.   Явления Облачность Т
(С)
Тd
(С)
f
(%)
Тe
(С)
Тes
(С)
Комфортность P
(гПа)
Po
(гПа)
Тmin
(С)
Tmax
(С)
R
(мм)
R24
(мм)
S
(см)
21 15.10 штиль 0 4000 м мгла ясно +25.0 +15.7 56 +28 +28 жарко 1010.4 1000.0
00 16.10 штиль 0 4000 м мгла ясно +24.0 +16.5 63 +27 +27 жарко 1010.8 1004.4
03 16.10 штиль 0 4000 м мгла 5/0
[Ac trans]
+21.0 +17.9 82 +25 +26 комфорт 1011.4 1004.9 +20.1
06 16.10 штиль 0 4000 м мгла 3/0
[Ac trans]
+29.5 +16.9 47 +33 +46 душно 1012.6 1006.3
09 16.10 штиль 0 4000 м мгла 3/0
[Ac trans]
+34.0 +16.9 36 +37 +49 очень
душно
1010.3 1000.0
12 16.10 штиль 0 4000 м мгла 3/0
[Ac trans]
+33.5 +17.3 38 +37 +38 очень
душно
1009.3 1003.1 +36.0
15 16.10 штиль 0 4000 м мгла 1/0
[Ac trans]
+30.0 +17.5 47 +34 +34 очень
душно
1010.4 1000.0
18 16.10 штиль 0 4000 м мгла ясно +26.0 +17.3 59 +30 +30 душно 1011.4 1005.1
21 16.10 штиль 0 4000 м мгла ясно +24.0 +17.6 67 +28 +28 душно 1010.9 1000.0
00 17.10 штиль 0 4000 м мгла ясно +22.0 +17.2 74 +26 +26 душно 1011.2 1004.7
03 17.10 штиль 0 4000 м мгла ясно +22.5 +17.7 74 +28 +29 душно 1012.4 1005.9 +20.1
06 17.10 штиль 0 4000 м мгла ясно +22.5 +17.7 74 +28 +43 душно 1012.4 1005.9 +20.1
09 17.10 СВ 1 4000 м мгла ясно +35.0 +8.9 20 +33 +46 жарко 1009.8 1010.0
12 17.10 СВ 1 4000 м мгла ясно +34.5 +12.1 26 +35 +36 очень
жарко
1008.8 1002.7 +36.5
15 17.10 штиль 0 4000 м мгла ясно +30.0 +15.6 42 +33 +33 душно 1009.7 1000.0
18 17.10 ЮЗ 3 н/о мгла 3/0
[Ci fib]
+25.0 +14.1 51 +27 +27 жарко 1010.3 1002.6
21 17.10 штиль 0 4000 м мгла ясно +24.0 +15.8 60 +27 +27 жарко 1010.1 1000.0
00 18.10 штиль 0 4000 м мгла ясно +22.0 +17.2 74 +26 +26 душно 1010.4 1003.9
03 18.10 штиль 0 4000 м мгла ясно +23.0 +16.5 67 +28 +30 душно 1011.9 1005.5 +21.1
06 18.10 штиль 0 4000 м мгла ясно +30.0 +17.5 47 +34 +49 очень
душно
1012.8 1006.5
09 18.10 штиль 0 4000 м мгла ясно +33.0 +16.3 37 +36 +50 очень
душно
1011.0 1000.0
12 18.10 штиль 0 4000 м мгла ясно +33.0 +15.5 35 +35 +37 душно 1009.4 1003.2 +35.1
15 18.10 штиль 0 4000 м мгла ясно +26.0 +16.4 55 +29 +29 душно 1009.6 1000.0
18 18.10 штиль 0 4000 м мгла ясно +24.0 +15.8 60 +27 +27 жарко 1010.7 1004.3
21 18.10 штиль 0 4000 м мгла ясно +23.0 +16.5 67 +28 +28 душно 1010.2 1000.0
00 19.10 штиль 0 4000 м мгла ясно +22.0 +16.3 70 +26 +26 душно 1011.2 1004.7
03 19.10 штиль 0 4000 м мгла ясно +20.0 +14.9 72 +22 +24 комфорт 1012.7 1006.2 +18.1
06 19.10 штиль 0 4000 м мгла ясно +30.0 +8.4 26 +29 +44 жарко 1013.9 1007.6
09 19.10 штиль 0 4000 м мгла ясно +33.0 +8.1 21 +31 +46 жарко 1012.2 1000.0
12 19.10 штиль 0 4000 м мгла ясно +32.0 +11.8 29 +32 +34 жарко 1010.4 1004.2 +35.1
15 19.10 штиль 0 4000 м мгла ясно +25.0 +15.1 54 +28 +28 жарко 1011.8 1000.0
18 19.10 штиль 0 4000 м мгла ясно +23.0 +14.6 59 +27 +27 душно 1013.1 1006.7
21 19.10 штиль 0 4000 м мгла ясно +22.0 +14.4 62 +25 +25 комфорт 1012.6 1000.0
00 20.10 штиль 0 4000 м мгла ясно +21.0 +14.2 65 +24 +24 комфорт 1013.6 1007.1
03 20.10 штиль 0 4000 м мгла ясно +20.0 +14.9 72 +22 +24 комфорт 1015.2 1008.7 +17.1
06 20.10 штиль 0 4000 м мгла ясно +28.0 +11.6 36 +29 +44 жарко 1016.3 1010.0
12 20.10 штиль 0 4000 м мгла ясно +31.5 +6.8 21 +30 +31 жарко 1011.7 1005.5 +34.1
15 20.10 штиль 0 4000 м мгла ясно +25.0 +15.1 54 +28 +28 жарко 1013.8 1000.0
18 20.10 штиль 0 4000 м мгла ясно +23.0 +14.6 59 +27 +27 душно 1014.9 997.7
21 20.10 штиль 0 4000 м мгла ясно +22.0 +14.4 62 +25 +25 комфорт 1014.3 1000.0
00 21.10 штиль 0 4000 м мгла ясно +21.0 +14.2 65 +24 +24 комфорт 1014.9 1008.4
03 21.10 штиль 0 4000 м мгла ясно +20.0 +14.9 72 +22 +24 комфорт 1016.2 1009.7 +17.1
06 21.10 штиль 0 4000 м мгла ясно +30.0 +14.5 39 +32 +46 жарко 1017.1 1010.8
09 21.10 штиль 0 4000 м мгла ясно +32.0 +14.1 34 +34 +48 душно 1014.2 1000.0
12 21.10 штиль 0 4000 м мгла ясно +31.5 +14.5 36 +33 +35 жарко 1013.0 1006.7 +34.1
15 21.10 штиль 0 4000 м мгла ясно +24.0 +14.9 57 +27 +27 жарко 1014.6 1000.0
18 21.10 штиль 0 4000 м мгла ясно +22.0 +14.4 62 +25 +25 комфорт 1015.6 997.6
21 21.10 штиль 0 4000 м мгла ясно +21.0 +14.2 65 +24 +24 комфорт 1014.9 1000.0
00 22.10 штиль 0 4000 м мгла ясно +19.0 +13.8 72 +20 +20 1014.0 1007.5
03 22.10 штиль 0 4000 м мгла ясно +20.0 +14.9 72 +22 +24 комфорт 1014.7 1008.2 +17.1
06 22.10 штиль 0 4000 м мгла ясно +29.0 +11.9 35 +30 +44 жарко 1011.9 1009.3
09 22.10 штиль 0 4000 м мгла ясно +32.0 +11.8 29 +32 +46 жарко 1012.0 1000.0
12 22.10 штиль 0 4000 м мгла 3/0
[Ac trans]
+32.0 +11.8 29 +32 +33 жарко 1009.8 1003.6 +33.5
15 22.10 штиль 0 4000 м мгла ясно +26.0 +17.3 59 +30 +30 душно 1010.6 1000.0

 

Местоположение метеостанции Jacobabad (Пакистан): широта 28.30 долгота 68.47 высота над уровнем моря 56 м.

В архиве по умолчанию представлена погода в Jacobabad за последнюю неделю. Архивные данные за месяц целиком и за предыдущие месяцы, начиная с января 2011 года, Вы можете получить, выбрав интересующий диапазон дат из раскрывающегося списка и нажав кнопку "Ввод!".


*Определитесь, кто Вы:
робот инопланетянин человек

Внимание! Время в таблицах - всемирное. Для получения местного времени необходимо прибавить поправку, которая в Jacobabad равна 5 ч.

Смотрите также архив погоды в соседних городах и на ближайших метеорологических станциях:

Погода в Rohri (Пакистан) (82 км)
Погода в Sibi (Пакистан) (150 км)
Погода в Pad Idan (Пакистан) (165 км)
Погода в Khuzdar (Пакистан) (188 км)
Погода в Kalat (Пакистан) (202 км)
Погода в Barkhan (Пакистан) (214 км)
Погода в Khanpur (Пакистан) (220 км)
Погода в Nawabshah (Пакистан) (228 км)
Погода в Quetta Airport (Пакистан) (266 км)
Погода в Jaisalmer (Rajasthan, Индия) (287 км)

Пояснения к столбцам:

Ветер - указаны скорость ветра в м/с - средняя за 10 мин, порывы в срок и между сроками (в фигурных скобках) и направление, откуда дует ветер: С - северный, СВ - северо-восточный, В - восточный, ЮВ - юго-восточный, Ю - южный, ЮЗ - юго-западный, З - западный, СЗ - северо-западный.
Видимость - горизонтальная дальность видимости в метрах или километрах. При видимости от 1 до 10 км при отсутствии осадков обычно наблюдается дымка, при ухудшении видимости до 1 км и менее - туман. В сухую погоду видимость может ухудшаться дымом, пылью или мглою.
Явления - указаны атмосферные явления, наблюдавшиеся в срок или в последний час перед сроком; фигурными скобками обозначены явления, наблюдавшиеся между сроками (за 1-3 часа до срока); квадратными скобками обозначены град или гололедные отложения с указанием их диаметра в мм.
Облачность - указаны через наклонную черту общая и нижняя облачность в баллах и высота нижней границы облаков в метрах; квадратными скобками обозначены формы облаков: Ci - перистые, Cs - перисто-слоистые, Cc - перисто-кучевые, Ac - высококучевые, As - высокослоистые, Sc - слоисто-кучевые, Ns - слоисто-дождевые, Cu - кучевые, Cb - кучево-дождевые. Подробнее классификацию облаков см. в Атласе облаков (PDF).
T - Температура воздуха - температура, измеренная на высоте 2 м над землей.
Td - Температура точки росы - температура, при понижении до которой содержащийся в воздухе водяной пар достигнет насыщения.
f - Относительная влажность воздуха - влажноcть воздуха, измеренная на высоте 2 м над землей.
Te - Эффективная температура - температура, которую ощущает одетый по сезону человек в тени. Характеристика душности погоды. При расчете учитывается влияние влажности воздуха и скорости ветра на теплоощущения человека.
Tes - Эффективная температура на солнце - температура, которую ощущает человек, с поправкой на солнечный нагрев. Характеристика знойности погоды. Зависит от высоты солнца над горизонтом, облачности и скорости ветра. Ночью, в пасмурную погоду, а также при ветре 12 м/с и более поправка равна нулю.
P - Атмосферное давление - приведенное к уровню моря атмосферное давление.
Po - Атмосферное давление - измеренное на уровне метеостанции атмосферное давление.
Tmin - Минимальная температура - минимум температуры воздуха на высоте 2 м над землей.
Tmax - Максимальная температура - максимум температуры воздуха на высоте 2 м над землей.
R - Количество осадков - Количество выпавших осадков за период времени, мм. При наведении курсора мыши на число - период времени, за который выпало указанное количество осадков.
R24 - Количество осадков - Количество выпавших осадков за 24 часа, мм.
S - Снежный покров - Высота снежного покрова, см. При наведении курсора мыши на число - состояние снежного покрова и степень покрытия местности в баллах.